Tracking 19846 objects as of 20-Sep-2019
HD Live streaming from Space Station
objects crossing your sky now

MORELOS 2

Track MORELOS 2 now!
MORELOS 2 is classified as:


NORAD ID: 16274
Int'l Code: 1985-109B
Perigee: 35,976.6 km
Apogee: 36,012.9 km
Inclination: 14.5 °
Period: 1,446.4 minutes
Semi major axis: 42365 km
RCS: 7.6304 m2 (large)
Launch date: November 27, 1985
Source: Mexico (MEX)
Launch site: AIR FORCE EASTERN TEST RANGE (AFETR)
aabbcc
Your satellite tracking list
Your tracking list is empty




NASA's NSSDC Master Catalog

Two Line Element Set (TLE):
1 16274U 85109B   19261.91863984  .00000073  00000-0  00000+0 0  9999
2 16274  14.5398  16.2626 0004278  51.5030 324.3602  0.99558978112789
Source of the keplerian elements: AFSPC